EW5401 Weather Reports


time (UTC)temp
C
wind
direction
speed
KPH
gust
KPH
rain 1hr
cm
rain 24hr
cm
rain mn
cm
humidity
%
barometer
mb
20260504081558 3 330 0.0 0.0 0.00 0.00 0.00 84 1010.7
20260504080151 3 330 0.0 0.0 0.00 0.00 0.00 84 1010.6
20260504044541 3 330 0.0 3.2 0.00 0.00 0.00 82 1010.9
20260504043033 3 330 0.0 0.0 0.00 0.00 0.00 81 1010.9
20260504041532 2 330 0.0 0.0 0.00 0.00 0.00 81 1010.9
20260504040029 2 330 0.0 0.0 0.00 0.00 0.00 81 1010.8
20260504034529 2 330 0.0 0.0 0.00 0.00 0.00 79 1010.7
20260504033027 3 330 0.0 0.0 0.00 0.00 0.00 78 1010.6
20260504031528 3 330 0.0 0.0 0.00 0.00 0.00 76 1010.6
20260504030037 3 330 0.0 0.0 0.00 0.00 0.00 74 1010.5
20260504024527 4 330 0.0 0.0 0.00 0.00 0.00 73 1010.4
20260504023028 5 330 0.0 0.0 0.00 0.00 0.00 69 1010.6
20260504021528 5 330 0.0 0.0 0.00 0.00 0.00 67 1010.6
20260504020026 6 330 0.0 0.0 0.00 0.00 0.00 64 1010.6
20260504014526 6 330 0.0 0.0 0.00 0.00 0.00 62 1010.4
20260504013025 7 330 0.0 0.0 0.00 0.00 0.00 57 1010.2
20260504011524 8 330 0.0 0.0 0.00 0.00 0.00 52 1010.1
20260504010023 9 330 0.0 0.0 0.00 0.00 0.00 49 1009.9
20260504004524 10 330 0.0 0.0 0.00 0.00 0.00 45 1009.8
20260504003022 10 319 1.6 3.2 0.00 0.00 0.00 42 1009.7
20260504001524 10 322 0.0 4.8 0.00 0.00 0.00 41 1009.3
20260504000021 10 252 1.6 4.8 0.00 0.00 0.00 40 1009.2
20260503234534 11 313 1.6 9.7 0.00 0.00 0.00 38 1009.0
20260503233021 11 271 3.2 14.5 0.00 0.00 0.00 36 1008.8
20260503231520 11 331 1.6 16.1 0.00 0.00 0.00 35 1008.7
20260503230020 11 306 0.0 12.9 0.00 0.00 0.00 37 1008.6
20260503224519 12 252 3.2 17.7 0.00 0.00 0.00 35 1008.5
20260503223018 12 303 1.6 11.3 0.00 0.00 0.00 35 1008.4
20260503221522 12 327 4.8 22.5 0.00 0.00 0.00 36 1008.5
20260503220036 13 44 3.2 14.5 0.00 0.00 0.00 35 1008.5
20260503214517 13 243 1.6 16.1 0.00 0.00 0.00 34 1008.4
20260503213015 12 303 12.9 29.0 0.00 0.00 0.00 34 1008.4
20260503211512 12 339 3.2 19.3 0.00 0.00 0.00 35 1008.2
20260503210012 12 325 9.7 29.0 0.00 0.00 0.00 37 1008.3
20260503204509 12 265 3.2 29.0 0.00 0.00 0.00 38 1008.3
20260503203018 11 349 8.0 25.7 0.00 0.00 0.00 38 1008.5
20260503201506 11 29 8.0 45.1 0.00 0.00 0.00 40 1008.8
20260503200004 11 296 4.8 16.1 0.00 0.00 0.00 45 1008.7
20260503194600 10 323 8.0 20.9 0.00 0.00 0.00 47 1009.0
20260503194501 10 342 4.8 19.3 0.00 0.00 0.00 44 1009.0
20260503193110 10 272 11.3 37.0 0.00 0.00 0.00 43 1009.1
20260503191608 10 303 12.9 32.2 0.00 0.00 0.00 45 1009.3
20260503190059 10 271 11.3 22.5 0.00 0.00 0.00 44 1009.3
20260503184610 10 360 8.0 27.4 0.00 0.00 0.00 43 1009.5
20260503183109 10 265 4.8 20.9 0.00 0.00 0.00 43 1009.6
20260503181608 10 340 3.2 22.5 0.00 0.00 0.00 44 1009.4
20260503180056 9 267 11.3 25.7 0.00 0.00 0.00 42 1009.4
20260503174555 9 30 9.7 29.0 0.00 0.00 0.00 43 1009.3
20260503173100 10 275 11.3 22.5 0.00 0.00 0.00 45 1009.1
20260503171552 9 281 8.0 25.7 0.00 0.00 0.00 43 1009.2